| time (UTC) | temp C | wind direction | speed KPH | gust KPH | rain 1hr cm | rain 24hr cm | rain mn cm | humidity % | barometer mb |
| 20260505152018 | 13 | 0.0 | 0.0 | 0.00 | 0.00 | 0.00 | 86 | 1008.0 | |
| 20260505151029 | 13 | 0.0 | 0.0 | 0.00 | 0.00 | 0.00 | 86 | 1007.9 | |
| 20260505150131 | 13 | 0.0 | 0.0 | 0.00 | 0.00 | 0.00 | 86 | 1008.2 | |
| 20260505140116 | 13 | 42 | 0.0 | 1.6 | 0.00 | 0.00 | 0.00 | 89 | 1007.6 |
| 20260505124111 | 12 | 42 | 1.6 | 3.2 | 0.00 | 0.00 | 0.00 | 90 | 1007.1 |
| 20260505123050 | 12 | 42 | 0.0 | 4.8 | 0.00 | 0.00 | 0.00 | 90 | 1007.0 |
| 20260505122030 | 12 | 42 | 0.0 | 1.6 | 0.00 | 0.00 | 0.00 | 90 | 1006.9 |
| 20260505121041 | 12 | 42 | 0.0 | 1.6 | 0.00 | 0.00 | 0.00 | 90 | 1007.1 |
| 20260505120052 | 12 | 0.0 | 0.0 | 0.00 | 0.00 | 0.00 | 90 | 1007.0 | |
| 20260505115035 | 11 | 42 | 0.0 | 3.2 | 0.00 | 0.00 | 0.00 | 90 | 1006.8 |
| 20260505114135 | 11 | 0.0 | 0.0 | 0.00 | 0.00 | 0.00 | 90 | 1006.6 | |
| 20260505113054 | 11 | 0.0 | 0.0 | 0.00 | 0.00 | 0.00 | 90 | 1006.2 | |
| 20260505112136 | 11 | 42 | 1.6 | 4.8 | 0.00 | 0.00 | 0.00 | 90 | 1006.1 |
| 20260505111045 | 11 | 0.0 | 0.0 | 0.00 | 0.00 | 0.00 | 90 | 1005.8 | |
| 20260505102038 | 11 | 0.0 | 0.0 | 0.00 | 0.00 | 0.00 | 90 | 1006.0 | |
| 20260505101018 | 11 | 42 | 0.0 | 1.6 | 0.00 | 0.00 | 0.00 | 90 | 1006.1 |
| 20260505100100 | 11 | 42 | 0.0 | 1.6 | 0.00 | 0.00 | 0.00 | 90 | 1005.7 |
| 20260505095040 | 11 | 42 | 0.0 | 1.6 | 0.00 | 0.00 | 0.00 | 90 | 1005.3 |
| 20260505094053 | 11 | 42 | 0.0 | 1.6 | 0.00 | 0.00 | 0.00 | 90 | 1005.6 |
| 20260505093031 | 11 | 42 | 1.6 | 4.8 | 0.00 | 0.00 | 0.00 | 90 | 1005.7 |
| 20260505092043 | 11 | 0.0 | 0.0 | 0.00 | 0.00 | 0.00 | 89 | 1005.3 | |
| 20260505091053 | 11 | 45 | 0.0 | 1.6 | 0.00 | 0.00 | 0.00 | 89 | 1004.9 |
| 20260505090033 | 11 | 52 | 1.6 | 3.2 | 0.00 | 0.00 | 0.00 | 89 | 1005.0 |
| 20260505085044 | 11 | 86 | 3.2 | 9.7 | 0.00 | 0.00 | 0.00 | 89 | 1004.8 |
| 20260505084024 | 11 | 38 | 3.2 | 8.0 | 0.00 | 0.00 | 0.00 | 89 | 1004.8 |
| 20260505083055 | 11 | 56 | 3.2 | 4.8 | 0.00 | 0.00 | 0.00 | 89 | 1004.7 |
| 20260505082051 | 11 | 126 | 1.6 | 3.2 | 0.00 | 0.00 | 0.00 | 89 | 1006.0 |
| 20260505081026 | 11 | 152 | 0.0 | 1.6 | 0.00 | 0.00 | 0.00 | 89 | 1006.9 |
| 20260505080159 | 11 | 0.0 | 0.0 | 0.00 | 0.00 | 0.00 | 88 | 1007.0 | |
| 20260505075017 | 11 | 0.0 | 0.0 | 0.00 | 0.00 | 0.00 | 88 | 1007.3 | |
| 20260505074100 | 11 | 0.0 | 0.0 | 0.00 | 0.00 | 0.00 | 88 | 1006.9 | |
| 20260505073142 | 12 | 0.0 | 0.0 | 0.00 | 0.00 | 0.00 | 88 | 1007.0 | |
| 20260505072050 | 12 | 0.0 | 0.0 | 0.00 | 0.00 | 0.00 | 88 | 1007.3 | |
| 20260505071030 | 12 | 0.0 | 0.0 | 0.00 | 0.00 | 0.00 | 87 | 1007.1 | |
| 20260505070112 | 12 | 0.0 | 0.0 | 0.00 | 0.00 | 0.00 | 87 | 1006.7 | |
| 20260505065142 | 12 | 0.0 | 0.0 | 0.00 | 0.00 | 0.00 | 87 | 1006.3 | |
| 20260505064031 | 12 | 0.0 | 0.0 | 0.00 | 0.00 | 0.00 | 86 | 1006.1 | |
| 20260505063113 | 12 | 0.0 | 0.0 | 0.00 | 0.00 | 0.00 | 86 | 1006.3 | |
| 20260505062042 | 12 | 0.0 | 0.0 | 0.00 | 0.00 | 0.00 | 85 | 1006.0 | |
| 20260505061033 | 12 | 0.0 | 0.0 | 0.00 | 0.00 | 0.00 | 85 | 1007.2 | |
| 20260505060044 | 12 | 159 | 1.6 | 3.2 | 0.00 | 0.00 | 0.00 | 84 | 1007.1 |
| 20260505055024 | 13 | 200 | 1.6 | 3.2 | 0.00 | 0.00 | 0.00 | 83 | 1006.8 |
| 20260505054108 | 13 | 106 | 1.6 | 4.8 | 0.00 | 0.00 | 0.00 | 81 | 1006.7 |
| 20260505053118 | 14 | 112 | 1.6 | 4.8 | 0.00 | 0.00 | 0.00 | 78 | 1005.6 |
| 20260505052047 | 17 | 95 | 3.2 | 8.0 | 0.00 | 0.00 | 0.00 | 68 | 1006.1 |
| 20260505051101 | 17 | 77 | 3.2 | 9.7 | 0.00 | 0.00 | 0.00 | 59 | 1004.7 |
| 20260505041112 | 19 | 343 | 3.2 | 4.8 | 0.00 | 0.00 | 0.00 | 45 | 1003.0 |
| 20260505040053 | 19 | 341 | 1.6 | 4.8 | 0.00 | 0.00 | 0.00 | 45 | 1003.0 |
| 20260505035033 | 19 | 331 | 1.6 | 4.8 | 0.00 | 0.00 | 0.00 | 45 | 1003.1 |
| 20260505034115 | 19 | 142 | 1.6 | 3.2 | 0.00 | 0.00 | 0.00 | 45 | 1003.0 |
| 20260505033055 | 19 | 97 | 1.6 | 3.2 | 0.00 | 0.00 | 0.00 | 45 | 1003.2 |
| 20260505032107 | 19 | 88 | 1.6 | 3.2 | 0.00 | 0.00 | 0.00 | 45 | 1003.3 |
| 20260505031117 | 19 | 91 | 1.6 | 8.0 | 0.00 | 0.00 | 0.00 | 46 | 1003.4 |
| 20260505030057 | 19 | 92 | 1.6 | 3.2 | 0.00 | 0.00 | 0.00 | 46 | 1003.5 |
| 20260505025056 | 20 | 94 | 1.6 | 4.8 | 0.00 | 0.00 | 0.00 | 46 | 1003.5 |
| 20260505024118 | 20 | 105 | 1.6 | 3.2 | 0.00 | 0.00 | 0.00 | 47 | 1003.6 |
| 20260505023149 | 20 | 106 | 1.6 | 8.0 | 0.00 | 0.00 | 0.00 | 45 | 1003.5 |
| 20260505022040 | 20 | 106 | 1.6 | 3.2 | 0.00 | 0.00 | 0.00 | 45 | 1003.6 |
| 20260505021120 | 20 | 106 | 1.6 | 1.6 | 0.00 | 0.00 | 0.00 | 45 | 1003.6 |
| 20260505020029 | 20 | 106 | 1.6 | 3.2 | 0.00 | 0.00 | 0.00 | 45 | 1003.5 |
| 20260505015111 | 20 | 105 | 1.6 | 3.2 | 0.00 | 0.00 | 0.00 | 45 | 1003.4 |
| 20260505014021 | 20 | 106 | 1.6 | 3.2 | 0.00 | 0.00 | 0.00 | 45 | 1003.3 |
| 20260505013031 | 20 | 134 | 0.0 | 3.2 | 0.00 | 0.00 | 0.00 | 46 | 1003.0 |
| 20260505012113 | 20 | 70 | 0.0 | 1.6 | 0.00 | 0.00 | 0.00 | 46 | 1002.8 |
| 20260505011053 | 20 | 70 | 1.6 | 3.2 | 0.00 | 0.00 | 0.00 | 45 | 1002.6 |
| 20260505010033 | 20 | 86 | 3.2 | 4.8 | 0.00 | 0.00 | 0.00 | 44 | 1002.4 |
| 20260505005116 | 20 | 90 | 1.6 | 3.2 | 0.00 | 0.00 | 0.00 | 44 | 1002.2 |
| 20260505004055 | 21 | 91 | 1.6 | 8.0 | 0.00 | 0.00 | 0.00 | 44 | 1002.2 |
| 20260505003055 | 21 | 89 | 3.2 | 8.0 | 0.00 | 0.00 | 0.00 | 44 | 1002.0 |
| 20260505002118 | 21 | 98 | 1.6 | 3.2 | 0.00 | 0.00 | 0.00 | 43 | 1002.1 |
| 20260505001027 | 21 | 131 | 3.2 | 8.0 | 0.00 | 0.00 | 0.00 | 42 | 1002.1 |
| 20260505000109 | 21 | 80 | 3.2 | 8.0 | 0.00 | 0.00 | 0.00 | 41 | 1002.3 |
| 20260504235049 | 21 | 109 | 3.2 | 9.7 | 0.00 | 0.00 | 0.00 | 40 | 1002.4 |
| 20260504234029 | 22 | 69 | 1.6 | 8.0 | 0.00 | 0.00 | 0.00 | 39 | 1002.8 |
| 20260504233110 | 22 | 66 | 3.2 | 8.0 | 0.00 | 0.00 | 0.00 | 39 | 1002.9 |
| 20260504232019 | 22 | 75 | 3.2 | 9.7 | 0.00 | 0.00 | 0.00 | 37 | 1003.0 |
| 20260504231101 | 22 | 90 | 4.8 | 8.0 | 0.00 | 0.00 | 0.00 | 37 | 1003.1 |
| 20260504230041 | 22 | 61 | 6.4 | 12.9 | 0.00 | 0.00 | 0.00 | 36 | 1003.1 |
| 20260504225021 | 22 | 80 | 4.8 | 8.0 | 0.00 | 0.00 | 0.00 | 36 | 1003.5 |
| 20260504224103 | 22 | 74 | 3.2 | 4.8 | 0.00 | 0.00 | 0.00 | 39 | 1003.5 |
| 20260504223115 | 22 | 69 | 3.2 | 8.0 | 0.00 | 0.00 | 0.00 | 41 | 1003.4 |
| 20260504222055 | 22 | 66 | 1.6 | 4.8 | 0.00 | 0.00 | 0.00 | 48 | 1003.2 |
| 20260504221055 | 21 | 91 | 1.6 | 3.2 | 0.00 | 0.00 | 0.00 | 50 | 1003.5 |
| 20260504220117 | 21 | 38 | 3.2 | 8.0 | 0.00 | 0.00 | 0.00 | 51 | 1003.6 |
| 20260504215057 | 21 | 351 | 3.2 | 9.7 | 0.00 | 0.00 | 0.00 | 52 | 1003.6 |
| 20260504214037 | 21 | 11 | 3.2 | 11.3 | 0.00 | 0.00 | 0.00 | 52 | 1003.8 |
| 20260504213119 | 21 | 350 | 1.6 | 4.8 | 0.00 | 0.00 | 0.00 | 53 | 1003.9 |
| 20260504212059 | 21 | 22 | 4.8 | 8.0 | 0.00 | 0.00 | 0.00 | 53 | 1003.9 |
| 20260504211038 | 20 | 353 | 3.2 | 8.0 | 0.00 | 0.00 | 0.00 | 57 | 1004.2 |
| 20260504210049 | 19 | 350 | 1.6 | 4.8 | 0.00 | 0.00 | 0.00 | 62 | 1004.5 |
| 20260504205029 | 18 | 63 | 1.6 | 8.0 | 0.00 | 0.00 | 0.00 | 65 | 1004.7 |
| 20260504204111 | 18 | 63 | 3.2 | 4.8 | 0.00 | 0.00 | 0.00 | 66 | 1004.6 |
| 20260504203051 | 17 | 165 | 1.6 | 4.8 | 0.00 | 0.00 | 0.00 | 67 | 1004.9 |
| 20260504202031 | 17 | 72 | 3.2 | 8.0 | 0.00 | 0.00 | 0.00 | 65 | 1004.8 |
| 20260504201113 | 18 | 30 | 3.2 | 4.8 | 0.00 | 0.00 | 0.00 | 64 | 1004.5 |
| 20260504200023 | 17 | 72 | 3.2 | 4.8 | 0.00 | 0.00 | 0.00 | 65 | 1005.3 |
| 20260504195104 | 17 | 5 | 4.8 | 9.7 | 0.00 | 0.00 | 0.00 | 61 | 1004.9 |
| 20260504194045 | 18 | 104 | 3.2 | 9.7 | 0.00 | 0.00 | 0.00 | 56 | 1005.5 |
| 20260504193025 | 17 | 87 | 0.0 | 1.6 | 0.00 | 0.00 | 0.00 | 59 | 1004.8 |
| 20260504192107 | 17 | 87 | 1.6 | 3.2 | 0.00 | 0.00 | 0.00 | 59 | 1005.2 |
| 20260504191047 | 18 | 87 | 3.2 | 8.0 | 0.00 | 0.00 | 0.00 | 55 | 1005.2 |
| 20260504190027 | 18 | 114 | 3.2 | 8.0 | 0.00 | 0.00 | 0.00 | 51 | 1005.4 |
| 20260504185109 | 18 | 117 | 1.6 | 3.2 | 0.00 | 0.00 | 0.00 | 52 | 1005.7 |
| 20260504184049 | 18 | 107 | 3.2 | 4.8 | 0.00 | 0.00 | 0.00 | 53 | 1005.7 |
| 20260504183028 | 19 | 83 | 3.2 | 9.7 | 0.00 | 0.00 | 0.00 | 53 | 1005.8 |
| 20260504182130 | 19 | 78 | 1.6 | 8.0 | 0.00 | 0.00 | 0.00 | 52 | 1006.2 |
| 20260504181051 | 20 | 83 | 3.2 | 8.0 | 0.00 | 0.00 | 0.00 | 50 | 1006.2 |
| 20260504180030 | 20 | 101 | 3.2 | 4.8 | 0.00 | 0.00 | 0.00 | 50 | 1006.0 |
| 20260504175112 | 20 | 97 | 3.2 | 8.0 | 0.00 | 0.00 | 0.00 | 49 | 1005.7 |
| 20260504174053 | 21 | 99 | 4.8 | 14.5 | 0.00 | 0.00 | 0.00 | 47 | 1005.7 |
| 20260504173032 | 21 | 68 | 3.2 | 4.8 | 0.00 | 0.00 | 0.00 | 48 | 1005.7 |
| 20260504172134 | 21 | 39 | 3.2 | 9.7 | 0.00 | 0.00 | 0.00 | 48 | 1005.5 |
| 20260504171055 | 21 | 62 | 3.2 | 9.7 | 0.00 | 0.00 | 0.00 | 47 | 1005.2 |
| 20260504170105 | 20 | 64 | 3.2 | 8.0 | 0.00 | 0.00 | 0.00 | 50 | 1005.6 |